Regional Weather Roundup
Issued by NWS

Home | Current Version | Previous Version | Graphics & Text | Print | Product List | Glossary On
Versions: 1 2 3 4 5 6 7 8 9 10 11 12 13 14 15 16 17 18 19 20 21 22 23 24 25 26 27 28 29 30 31 32 33 34 35 36 37 38 39 40 41 42 43 44 45 46 47 48 49 50
000
ASUS43 KOAX 261302
RWRNE

WEATHER ROUNDUP FOR NEBRASKA
NATIONAL WEATHER SERVICE OMAHA NE
800 AM CDT THU MAR 26 2015

NOTES: SATELLITE DATA IS BEING USED TO AUGMENT CLOUD COVER ABOVE
       12000 FEET.
       "FAIR" INDICATES FEW OR NO CLOUDS BELOW 12,000 FEET WITH NO
       SIGNIFICANT WEATHER AND/OR OBSTRUCTIONS TO VISIBILITY.

  * THESE STATIONS DO NOT REPORT WEATHER SUCH AS RAIN...SNOW OR FOG.

NEZ001>004-019>022-054>056-261400-
NEBRASKA PANHANDLE

CITY           SKY/WX    TMP DP  RH WIND       PRES   REMARKS
SCOTTSBLUFF    CLOUDY    29  26  89 NW6       30.16S WCI  23
ALLIANCE       CLOUDY    26  21  81 S3        30.12F
CHADRON        CLOUDY    29  24  82 NE5       30.12R WCI  24
KIMBALL        CLOUDY    33  25  72 W14       30.14F WCI  23
SIDNEY         CLOUDY    32  26  78 W13       30.15F WCI  22
$$

NEZ057>060-069>072-079>082-261400-
SOUTHWEST NEBRASKA

CITY           SKY/WX    TMP DP  RH WIND       PRES   REMARKS
NORTH PLATTE   CLOUDY    22  19  89 CALM      30.20F
IMPERIAL         N/A     20  15  81 CALM      30.19S
MCCOOK         CLEAR     20  15  81 CALM      30.23S
$$

NEZ005>010-023>029-035>040-094-261400-
NORTH CENTRAL NEBRASKA

CITY           SKY/WX    TMP DP  RH WIND       PRES   REMARKS
VALENTINE      CLOUDY    24  21  88 CALM      30.14F
BROKEN BOW     PTCLDY    20  16  84 CALM      30.19F
ORD            CLEAR     14  10  84 SW5       30.21S WCI   6
$$

NEZ041-046>049-061>064-073>077-083>087-261400-
SOUTH CENTRAL NEBRASKA

CITY           SKY/WX    TMP DP  RH WIND       PRES   REMARKS
GRAND ISLAND   CLEAR     22  18  85 W8        30.25R WCI  12
HASTINGS       CLEAR     23  18  81 W7        30.24R WCI  15
HEBRON         CLEAR     27  21  80 W3        30.26R
KEARNEY *      CLEAR     21  16  79 CALM      30.24S
$$

NEZ011>018-030>034-042>045-261400-
NORTHEAST NEBRASKA

CITY           SKY/WX    TMP DP  RH WIND       PRES   REMARKS
NORFOLK        CLEAR     26  20  77 W10       30.21R WCI  16
ALBION         CLEAR     19  16  86 CALM      30.23R
BLAIR          CLEAR     28  21  76 W6        30.21R WCI  21
COLUMBUS *     CLEAR     23  12  63 W5        30.25R WCI  17
TEKAMAH        CLEAR     28  21  75 W23       30.22R WCI  14
$$

NEZ050>053-065>068-078-088>093-261400-
SOUTHEAST NEBRASKA

CITY           SKY/WX    TMP DP  RH WIND       PRES   REMARKS
LINCOLN        CLEAR     28  22  78 NW5       30.25R WCI  23
OMAHA EPPLEY   CLEAR     29  23  78 CALM      30.23R
FALLS CITY     CLEAR     29  25  85 NW8       30.24R WCI  21
NEBRASKA CITY  CLEAR     28  24  85 W8        30.23R WCI  20
PLATTSMOUTH    CLEAR     26  22  85 W6        30.23R WCI  19
$$

NEZ044-045-051>053-067-261400-
OMAHA AREA

CITY           SKY/WX    TMP DP  RH WIND       PRES   REMARKS
OMAHA EPPLEY   CLEAR     29  23  78 CALM      30.23R
BLAIR          CLEAR     28  21  76 W6        30.21R WCI  21
PLATTSMOUTH    CLEAR     26  22  85 W6        30.23R WCI  19
$$



USA.gov is the U.S. government's official web portal to all federal, state and local government web resources and services.